[[{"header":{"parameterUnit":"m.s-1","parameterCategory":1,"la1":30.2991,"la2":30.254,"lo1":-89.0895,"lo2":-89.0444,"dy":0.0017,"dx":0.0017,"nx":28,"ny":28,"refTime":"2024-07-17T21:00:00:Z","depth":0,"parameterNumber":2,"parameterNumberName":"U-component_of_WINDS"},"data":[0,0,0,0,0,0,0,0,0,0,0,0,0,0,0,0,0,0,0,0,0,0,0,0,0,0,0,0,0,0,0,0,0,0,0,0,0,0,0,0,0,0,0,0,0,0,0,0,0,0,0,0,0,0,0,0,0,0,4.402,4.4022,0,4.4194,4.4196,4.4198,4.4165,4.4162,4.4159,4.4156,4.4332,4.4339,4.4347,0,0,0,0,0,0,0,0,0,0,0,0,0,4.3654,4.3661,4.402,4.4022,4.4024,4.4194,4.4196,4.4199,4.4165,4.4162,4.4158,4.4154,4.4329,4.4338,4.4347,0,0,0,0,0,0,0,0,0,0,0,0,0,4.3819,4.3663,4.402,4.4028,4.4031,4.4194,4.4196,4.4199,4.4166,4.4161,4.4157,4.4152,4.4326,4.4337,4.4349,4.4513,0,0,4.4383,4.4388,0,0,0,0,0,0,0,0,4.381,4.3832,4.4025,4.4028,4.4031,4.4153,4.4132,4.4304,4.4167,4.4115,4.4155,4.415,4.4276,4.4291,4.4334,4.4521,4.4529,4.4384,4.4391,4.4396,4.4399,0,0,0,0,0,0,0,4.3798,4.3825,4.4089,4.4028,4.4032,4.4022,4.404,4.4164,4.4219,4.4119,4.4117,4.4138,4.4277,4.4323,4.4338,4.4531,4.4384,4.4394,4.4401,4.4406,4.4857,4.4862,0,0,0,0,0,0,4.3784,4.3815,4.4083,4.4094,4.3907,4.4032,4.4053,4.4119,4.4218,4.4229,4.4142,4.4136,4.4306,4.4325,4.4344,4.454,4.4396,4.4407,4.4413,4.4852,4.4858,4.4864,0,0,0,0,0,0,4.3777,4.3809,4.4076,4.3954,4.3988,4.4044,4.4118,4.4125,4.4171,4.4235,4.4245,4.418,4.4303,4.4328,4.447,4.4545,4.4412,4.4422,4.4846,4.4854,4.4861,4.4934,0,0,0,0,0,0,4.3766,4.3806,4.3871,4.3956,4.3994,4.4201,4.4123,4.4131,4.4191,4.4185,4.4273,4.4283,4.4301,4.4453,4.4482,4.4559,4.4431,4.484,4.485,4.4859,4.4925,4.4944,4.4959,0,0,0,0,0,4.3753,4.3885,4.3874,4.3907,4.4076,4.4206,4.4228,4.4246,4.4197,4.4261,4.4302,4.4281,4.4533,4.4468,4.45,4.4581,4.4835,4.4847,4.4858,4.4918,4.494,4.4959,0,0,0,0,0,0,4.3807,4.3896,4.3885,4.4049,4.412,4.42,4.4282,4.427,4.4356,4.4346,4.4365,4.4385,4.4529,4.457,4.4496,4.4743,4.4677,4.4695,4.4711,4.4733,4.475,4.4736,4.4441,0,0,0,0,0,4.3837,4.3936,4.4009,4.4146,4.4182,4.4226,4.4283,4.4291,4.4365,4.4395,4.4447,4.4519,4.4613,4.4676,4.4768,4.4932,4.4948,4.5003,4.502,4.5033,4.5048,4.5134,4.5158,4.4902,4.4902,4.4902,0,0,4.3902,4.3963,4.4024,4.4158,4.4214,4.4314,4.4251,4.4361,4.4434,4.4412,4.4548,4.4588,4.467,4.4823,4.4893,4.4861,4.5123,4.5048,4.5058,4.5066,4.5148,4.5172,4.5194,4.491,4.4909,4.4907,0,0,4.4069,4.4128,4.4246,4.4303,4.4389,4.4416,4.4445,4.4527,4.4552,4.469,4.4673,4.4761,4.4926,4.4983,4.5033,4.522,4.5202,4.5249,4.5336,4.542,4.544,4.5457,4.552,4.5543,4.5264,4.5265,4.5265,0,4.4138,4.429,4.4308,4.4418,4.4476,4.446,4.4578,4.4632,4.4743,4.4782,4.4746,4.4949,4.5003,4.5167,4.5212,4.5255,4.5286,4.5238,4.5436,4.5454,4.547,4.553,4.5554,4.5269,4.5269,4.5268,4.5268,0,4.4368,4.4473,4.4558,4.4665,4.4733,4.4847,4.488,4.4946,4.4947,4.4978,4.5116,4.518,4.5282,4.5322,4.5326,4.5486,4.5463,4.5431,4.5364,4.5499,4.5556,4.5579,4.5277,4.5275,4.5273,4.5272,0,0,4.4575,4.4689,4.4719,4.4766,4.4858,4.4938,4.505,4.515,4.5204,4.5281,4.5373,4.5511,4.5481,4.5539,4.5548,4.5621,4.576,4.558,4.5582,4.5608,4.5935,4.5957,4.5983,4.5749,4.5754,4.5757,4.5927,0,4.4748,4.4946,4.4964,4.5141,4.5235,4.522,4.5317,4.5383,4.5414,4.5498,4.5532,4.5628,4.5583,4.5617,4.5689,4.5728,4.5825,4.5716,4.5831,4.5835,4.5809,4.6013,4.6037,4.6195,4.595,4.5954,4.5957,0,4.4978,4.506,4.5246,4.5321,4.5361,4.5448,4.5539,4.5621,4.5693,4.5711,4.5774,4.5772,4.5884,4.5814,4.5967,4.5892,4.594,4.5966,4.5972,4.5982,4.5902,4.6025,4.6246,4.6268,4.5992,4.5989,4.5987,0,4.5105,4.5262,4.5393,4.5434,4.5526,4.5586,4.5627,4.5696,4.5753,4.5833,4.587,4.5961,4.6011,4.6081,4.6102,4.605,4.6253,4.6186,4.6268,4.6267,4.6309,4.6306,4.6538,4.6346,4.6346,4.6345,4.6345,0,4.5295,4.5409,4.5451,4.5531,4.5656,4.5675,4.5798,4.5835,4.5896,4.5981,4.5974,4.6053,4.6079,4.6163,4.6181,4.6302,4.6325,4.634,4.6343,4.6339,4.6337,4.6369,4.6357,4.6351,4.635,4.6349,4.6348,0,4.5458,4.5492,4.5632,4.5707,4.5728,4.5817,4.588,4.5956,4.5985,4.6092,4.6119,4.6164,4.6262,4.6291,4.6409,4.642,4.6561,4.6556,4.6537,4.6536,4.6614,4.6605,4.6873,4.6907,4.6696,4.6698,4.67,0,4.5576,4.5663,4.5746,4.5803,4.5846,4.5938,4.5996,4.6017,4.6078,4.6165,4.623,4.6326,4.6404,4.656,4.6602,4.6691,4.6686,4.6773,4.6699,4.6691,4.6682,4.6676,4.6682,4.6786,4.6789,4.679,4.6792,0,4.578,4.5792,4.5877,4.5966,4.6036,4.6108,4.6177,4.6223,4.6254,4.6322,4.6421,4.6481,4.66,4.6695,4.6784,4.6824,4.6812,4.6815,4.6838,4.6833,4.6817,4.6823,4.6571,4.6808,4.6807,4.6806,4.6805,4.6804,4.5922,4.5997,4.6066,4.616,4.6213,4.6277,4.6351,4.6389,4.6472,4.657,4.6578,4.6684,4.6751,4.687,4.6915,4.6997,4.6971,4.7005,4.7013,4.7021,4.7025,4.6806,4.7014,4.7013,4.7013,4.7013,4.7012,0,4.6123,4.6166,4.6252,4.6348,4.6421,4.6404,4.6478,4.654,4.6634,4.6698,4.6774,4.6886,4.6977,4.7025,4.7115,4.7171,4.7167,4.7193,4.7188,4.7196,4.7045,4.7014,4.7195,4.7194,4.7194,4.7194,4.7194,4.7194,4.6236,4.6359,4.6378,4.6528,4.657,4.6674,4.6718,4.6775,4.6826,4.6951,4.7026,4.7058,4.7115,4.7208,4.7289,4.7301,4.7333,4.7361,4.7369,4.7226,4.7208,4.719,4.7161,4.7369,4.7369,4.7514,4.7515,4.7516]},{"header":{"parameterUnit":"m.s-1","parameterCategory":1,"la1":30.2991,"la2":30.254,"lo1":-89.0895,"lo2":-89.0444,"dy":0.0017,"dx":0.0017,"nx":28,"ny":28,"refTime":"2024-07-17T21:00:00:Z","depth":0,"parameterNumber":3,"parameterNumberName":"V-component_of_WINDS"},"data":[0,0,0,0,0,0,0,0,0,0,0,0,0,0,0,0,0,0,0,0,0,0,0,0,0,0,0,0,0,0,0,0,0,0,0,0,0,0,0,0,0,0,0,0,0,0,0,0,0,0,0,0,0,0,0,0,0,0,0.807,0.8071,0,0.8172,0.8173,0.8174,0.816,0.8158,0.8156,0.8155,0.8268,0.8273,0.8277,0,0,0,0,0,0,0,0,0,0,0,0,0,0.787,0.7874,0.807,0.8071,0.8072,0.8172,0.8173,0.8175,0.816,0.8158,0.8156,0.8154,0.8267,0.8272,0.8278,0,0,0,0,0,0,0,0,0,0,0,0,0,0.7963,0.7875,0.807,0.8077,0.8079,0.8172,0.8173,0.8175,0.8161,0.8158,0.8155,0.8153,0.8265,0.8272,0.8278,0.8373,0,0,0.83,0.8303,0,0,0,0,0,0,0,0,0.7958,0.7971,0.8075,0.8077,0.8079,0.815,0.8144,0.8242,0.8161,0.813,0.8155,0.8152,0.8232,0.8241,0.8266,0.8378,0.8383,0.83,0.8304,0.8307,0.8309,0,0,0,0,0,0,0,0.7951,0.7966,0.8111,0.8076,0.8079,0.8078,0.8088,0.8163,0.8194,0.8132,0.8131,0.8143,0.8232,0.826,0.8269,0.8385,0.83,0.8306,0.831,0.8313,0.8581,0.8583,0,0,0,0,0,0,0.7942,0.7961,0.8107,0.8114,0.801,0.8083,0.8095,0.813,0.8193,0.82,0.8145,0.8142,0.8249,0.8261,0.8273,0.8388,0.8307,0.8314,0.8318,0.8578,0.8581,0.8585,0,0,0,0,0,0,0.7938,0.7955,0.8103,0.8037,0.8056,0.8089,0.8129,0.8134,0.8161,0.8203,0.821,0.8167,0.8247,0.8263,0.8348,0.8392,0.8317,0.8323,0.8574,0.8579,0.8583,0.862,0,0,0,0,0,0,0.7932,0.7954,0.7988,0.8038,0.8059,0.8174,0.8132,0.8137,0.8172,0.8169,0.8225,0.8232,0.8247,0.8337,0.8355,0.84,0.8329,0.8571,0.8576,0.8582,0.8615,0.8625,0.8634,0,0,0,0,0,0.7925,0.7997,0.799,0.8008,0.8103,0.8177,0.819,0.8202,0.8175,0.8212,0.8239,0.823,0.8384,0.8346,0.8366,0.8414,0.8568,0.8575,0.8581,0.8611,0.8623,0.8633,0,0,0,0,0,0,0.7955,0.8003,0.7997,0.8086,0.8127,0.8174,0.822,0.8215,0.8267,0.8262,0.8278,0.8291,0.8377,0.8404,0.8361,0.8509,0.8473,0.8483,0.8488,0.8501,0.851,0.8502,0.8334,0,0,0,0,0,0.7971,0.8024,0.8065,0.814,0.8161,0.8187,0.822,0.8225,0.827,0.8288,0.8322,0.8368,0.8426,0.8465,0.8521,0.8618,0.8631,0.8661,0.867,0.8678,0.8687,0.8742,0.8756,0.8606,0.8606,0.8606,0,0,0.8007,0.804,0.8073,0.8147,0.8179,0.8237,0.8202,0.8264,0.8308,0.8299,0.838,0.8406,0.8459,0.855,0.8592,0.8575,0.8731,0.8686,0.8692,0.8698,0.875,0.8764,0.8776,0.8611,0.861,0.8609,0,0,0.8101,0.8131,0.8196,0.8229,0.8277,0.8294,0.831,0.8357,0.8374,0.8455,0.8449,0.8502,0.8603,0.864,0.8672,0.8779,0.8774,0.8797,0.8847,0.8899,0.8911,0.8922,0.8961,0.8975,0.8806,0.8806,0.8806,0,0.814,0.8223,0.8232,0.8294,0.8327,0.8318,0.8386,0.8418,0.8484,0.8508,0.8487,0.8612,0.8647,0.8747,0.8773,0.8799,0.8819,0.8792,0.8908,0.8919,0.8929,0.8967,0.8981,0.8809,0.8809,0.8808,0.8808,0,0.827,0.8328,0.8375,0.8435,0.8474,0.8539,0.8559,0.8597,0.86,0.8619,0.8703,0.8743,0.8808,0.8832,0.8836,0.8933,0.8921,0.8904,0.8868,0.8946,0.8981,0.8996,0.8813,0.8812,0.8811,0.881,0,0,0.8387,0.8449,0.8467,0.8494,0.8546,0.8592,0.8658,0.8717,0.875,0.8796,0.8852,0.8936,0.8921,0.8957,0.8966,0.9011,0.9094,0.8989,0.8991,0.9008,0.9205,0.9218,0.9235,0.909,0.9093,0.9095,0.9201,0,0.8487,0.8599,0.8608,0.871,0.8764,0.8756,0.8813,0.8852,0.8872,0.8923,0.8947,0.9006,0.898,0.9002,0.9047,0.9075,0.9135,0.9067,0.9146,0.9148,0.9134,0.9253,0.9268,0.9366,0.9215,0.9218,0.9219,0,0.8619,0.8665,0.8772,0.8815,0.8839,0.8889,0.8945,0.8993,0.9038,0.9049,0.9089,0.9091,0.916,0.912,0.9217,0.9171,0.9203,0.9222,0.9226,0.9235,0.919,0.9267,0.9397,0.9412,0.9241,0.9239,0.9238,0,0.8695,0.8784,0.8859,0.8883,0.8935,0.8971,0.8996,0.9038,0.9073,0.9122,0.9146,0.9203,0.9236,0.9281,0.9299,0.9268,0.9396,0.9357,0.941,0.9409,0.9439,0.9437,0.9577,0.9457,0.9457,0.9457,0.9456,0,0.8807,0.8873,0.8894,0.894,0.9014,0.9024,0.9098,0.9121,0.9158,0.9211,0.9208,0.9258,0.9278,0.9332,0.9346,0.9425,0.944,0.9453,0.9456,0.9454,0.9452,0.9477,0.9471,0.946,0.946,0.9459,0.9458,0,0.8905,0.8922,0.9003,0.9045,0.9058,0.9111,0.9148,0.9194,0.9212,0.9279,0.9295,0.9325,0.9388,0.941,0.9487,0.9497,0.9589,0.9586,0.9573,0.9574,0.9626,0.9621,0.9788,0.9811,0.9674,0.9676,0.9677,0,0.8976,0.9026,0.9073,0.9106,0.913,0.9185,0.922,0.9232,0.9269,0.9323,0.9364,0.9425,0.9475,0.9577,0.9607,0.9667,0.9666,0.972,0.9676,0.9671,0.9669,0.9666,0.9672,0.973,0.9731,0.9732,0.9733,0,0.91,0.9105,0.9154,0.9206,0.9247,0.929,0.9331,0.9359,0.9378,0.942,0.9482,0.9521,0.9598,0.9661,0.9721,0.9749,0.9746,0.9746,0.9762,0.9761,0.9752,0.9758,0.9597,0.9743,0.9742,0.9742,0.9741,0.9741,0.9188,0.9232,0.9271,0.9326,0.9357,0.9395,0.944,0.9463,0.9514,0.9576,0.9581,0.9649,0.9693,0.9773,0.9804,0.9859,0.9844,0.9867,0.9873,0.9878,0.9883,0.9741,0.987,0.987,0.987,0.987,0.9869,0,0.9312,0.9336,0.9387,0.9443,0.9486,0.9475,0.9519,0.9558,0.9617,0.9657,0.9705,0.9778,0.9838,0.9872,0.9932,0.997,0.997,0.9986,0.9984,0.9991,0.9892,0.9873,0.9985,0.9985,0.9985,0.9985,0.9985,0.9985,0.9382,0.9456,0.9466,0.9556,0.958,0.9645,0.9671,0.9707,0.9739,0.9819,0.9868,0.9888,0.9927,0.999,1.0045,1.0054,1.0077,1.0095,1.0102,1.001,0.9998,0.9987,0.9969,1.0099,1.0099,1.0197,1.0198,1.0199]}]]